Location: ??
(35.5090°N, 139.6783°E)
Time: 02:57:36
(UTC+00:00)

Aureole 3 Rocket - Pass Details

Date: 08 November 2025
Orbit: 398 x 1690 km, 82.5° (Epoch: 09 December)

Event Time Altitude Azimuth Distance (km) Brightness Sun altitude
Rises 09:12:17 0° 174° (S) 2,922 6.5 -19.0°
Reaches altitude 10° 09:14:49 10° 169° (S) 1,848 5.4 -19.6°
Enters shadow 09:16:46 25° 155° (SSE) 1,064 4.1 -20.0°
